Location: Cella
(44.7333°N, 10.5667°E)
Time: 05:42:48
(UTC+00:00)

CZ-2C R/B - Pass Details

Date: 03 March 2021
Orbit: 784 x 871 km, 98.2° (Epoch: 12 April)

Event Time Altitude Azimuth Distance (km) Brightness Sun altitude
Rises 18:00:54 0° 18° (NNE) 3,428 5.7 -10.1°
Reaches altitude 10° 18:03:23 10° 23° (NNE) 2,476 4.9 -10.6°
Maximum altitude 18:08:43 50° 99° (E) 1,049 2.8 -11.5°
Drops below altitude 10° 18:13:53 10° 174° (S) 2,402 5.0 -12.5°
Sets 18:16:15 0° 180° (S) 3,317 5.8 -12.9°
